CW0133 Weather Reports


Display with metric or nautical units.
time (UTC)temp
F
wind
direction
speed
MPH
gust
MPH
rain 1hr
in
rain 24hr
in
rain mn
in
humidity
%
barometer
mb
20210305191518 78 291 7.0 18.0 0.00 0.00 0.00 27 1013.0
20210305191026 78 289 8.0 18.0 0.00 0.00 0.00 27 1013.2
20210305190513 78 287 8.0 17.0 0.00 0.00 0.00 27 1013.3
20210305190022 78 281 8.0 19.0 0.00 0.00 0.00 27 1013.3
20210305185828 78 290 8.0 19.0 0.00 0.00 0.00 27 1013.5
20210305185134 77 299 8.0 20.0 0.00 0.00 0.00 28 1013.5
20210305184528 77 294 8.0 20.0 0.00 0.00 0.00 30 1013.6
20210305184024 77 287 8.0 20.0 0.00 0.00 0.00 29 1013.7
20210305183519 76 287 8.0 22.0 0.00 0.00 0.00 28 1013.8
20210305183019 77 296 8.0 22.0 0.00 0.00 0.00 29 1013.7
20210305182729 77 294 8.0 18.0 0.00 0.00 0.00 29 1013.8
20210305182046 76 288 7.0 17.0 0.00 0.00 0.00 29 1013.8
20210305181526 75 282 6.0 14.0 0.00 0.00 0.00 32 1013.7
20210305181020 75 281 5.0 12.0 0.00 0.00 0.00 35 1013.9
20210305180514 75 273 6.0 14.0 0.00 0.00 0.00 33 1013.9
20210305180054 75 253 7.0 14.0 0.00 0.00 0.00 33 1013.9
20210305175914 75 269 6.0 13.0 0.00 0.00 0.00 34 1013.8
20210305175430 75 295 5.0 13.0 0.00 0.00 0.00 38 1014.0
20210305174534 74 298 6.0 14.0 0.00 0.00 0.00 37 1014.0
20210305174012 74 288 6.0 16.0 0.00 0.00 0.00 36 1014.0
20210305173520 74 284 7.0 17.0 0.00 0.00 0.00 35 1014.1
20210305173012 74 294 8.0 17.0 0.00 0.00 0.00 35 1014.2
20210305172838 74 298 8.0 17.0 0.00 0.00 0.00 36 1014.2
20210305172200 74 292 7.0 17.0 0.00 0.00 0.00 37 1014.3
20210305171521 73 275 7.0 17.0 0.00 0.00 0.00 37 1014.2
20210305171021 73 271 7.0 13.0 0.00 0.00 0.00 39 1014.3
20210305170527 73 284 7.0 16.0 0.00 0.00 0.00 38 1014.2
20210305170127 73 292 7.0 16.0 0.00 0.00 0.00 37 1014.3
20210305165924 73 286 7.0 18.0 0.00 0.00 0.00 38 1014.2
20210305165431 73 286 7.0 18.0 0.00 0.00 0.00 36 1014.2
20210305164513 73 299 6.0 12.0 0.00 0.00 0.00 45 1014.1
20210305164232 72 296 6.0 14.0 0.00 0.00 0.00 47 1014.1
20210305164056 72 279 7.0 14.0 0.00 0.00 0.00 49 1014.2
20210305163653 71 279 7.0 16.0 0.00 0.00 0.00 50 1014.3
20210305163234 71 286 6.0 16.0 0.00 0.00 0.00 52 1014.2
20210305162307 70 298 6.0 12.0 0.00 0.00 0.00 52 1014.2
20210305161522 70 300 7.0 13.0 0.00 0.00 0.00 53 1014.1
20210305161031 69 273 6.0 13.0 0.00 0.00 0.00 55 1014.4
20210305160521 69 254 6.0 12.0 0.00 0.00 0.00 59 1014.5
20210305160029 69 259 6.0 13.0 0.00 0.00 0.00 64 1014.4
20210305155734 68 249 5.0 13.0 0.00 0.00 0.00 68 1014.5
20210305155111 67 253 5.0 13.0 0.00 0.00 0.00 70 1014.4
20210305154517 67 247 6.0 11.0 0.00 0.00 0.00 73 1014.4
20210305154022 66 220 5.0 11.0 0.00 0.00 0.00 77 1014.4
20210305153521 66 203 6.0 11.0 0.00 0.00 0.00 77 1014.5
20210305153138 65 204 7.0 12.0 0.00 0.00 0.00 79 1014.6
20210305152946 64 203 6.0 12.0 0.00 0.00 0.00 80 1014.6
20210305152329 64 189 5.0 13.0 0.00 0.00 0.00 83 1014.5
20210305151523 63 190 5.0 13.0 0.00 0.00 0.00 85 1014.5
20210305151023 62 202 5.0 10.0 0.00 0.00 0.00 87 1014.5
20210305150508 61 196 6.0 12.0 0.00 0.00 0.00 88 1014.6
20210305150044 61 195 5.0 12.0 0.00 0.00 0.00 88 1014.5
20210305145844 60 198 5.0 10.0 0.00 0.00 0.00 90 1014.6
20210305145256 60 183 5.0 10.0 0.00 0.00 0.00 90 1014.6
20210305144533 60 164 4.0 8.0 0.00 0.00 0.00 91 1014.5
20210305144033 59 163 4.0 8.0 0.00 0.00 0.00 91 1014.3
20210305143522 59 160 5.0 8.0 0.00 0.00 0.00 91 1014.4
20210305143027 58 157 4.0 7.0 0.00 0.00 0.00 91 1014.3
20210305142801 58 157 4.0 6.0 0.00 0.00 0.00 91 1014.3
20210305142110 58 157 4.0 7.0 0.00 0.00 0.00 91 1014.3
20210305141522 58 148 5.0 8.0 0.00 0.00 0.00 91 1014.2
20210305141019 58 149 4.0 8.0 0.00 0.00 0.00 91 1014.2
20210305140530 58 161 4.0 6.0 0.00 0.00 0.00 91 1014.1
20210305140236 57 162 4.0 7.0 0.00 0.00 0.00 91 1014.1
20210305140043 57 164 4.0 7.0 0.00 0.00 0.00 91 1014.1
20210305135406 57 164 4.0 7.0 0.00 0.00 0.00 91 1014.1
20210305134522 57 166 4.0 7.0 0.00 0.00 0.00 91 1014.1
20210305134027 57 169 4.0 7.0 0.00 0.00 0.00 91 1014.1
20210305133520 57 170 4.0 7.0 0.00 0.00 0.00 91 1014.1
20210305133020 57 170 4.0 6.0 0.00 0.00 0.00 91 1014.1
20210305132849 56 170 2.0 5.0 0.00 0.00 0.00 91 1013.9
20210305132204 56 170 2.0 5.0 0.00 0.00 0.00 91 1014.0
20210305131510 56 170 2.0 4.0 0.00 0.00 0.00 91 1014.2
20210305131026 56 170 1.0 4.0 0.00 0.00 0.00 91 1014.2
20210305130541 56 170 1.0 4.0 0.00 0.00 0.00 90 1014.1
20210305130209 56 170 1.0 2.0 0.00 0.00 0.00 90 1014.1
20210305130021 56 170 1.0 2.0 0.00 0.00 0.00 90 1014.0
20210305125252 56 170 1.0 2.0 0.00 0.00 0.00 90 1014.0
20210305124518 56 170 0.0 2.0 0.00 0.00 0.00 90 1014.2
20210305124010 56 170 0.0 1.0 0.00 0.00 0.00 90 1014.2
20210305123606 56 170 0.0 1.0 0.00 0.00 0.00 90 1014.2
20210305123335 56 170 0.0 1.0 0.00 0.00 0.00 90 1014.1
20210305123140 56 170 0.0 1.0 0.00 0.00 0.00 90 1014.0
20210305122522 56 170 1.0 2.0 0.00 0.00 0.00 90 1014.1
20210305121519 56 170 1.0 2.0 0.00 0.00 0.00 90 1014.2
20210305121023 56 170 0.0 2.0 0.00 0.00 0.00 90 1014.1
20210305120522 56 170 0.0 2.0 0.00 0.00 0.00 90 1013.8
20210305120022 56 170 0.0 2.0 0.00 0.00 0.00 90 1013.8
20210305115906 56 170 0.0 2.0 0.00 0.00 0.00 90 1013.8
20210305115418 56 170 1.0 5.0 0.00 0.00 0.00 90 1013.9
20210305114522 56 170 2.0 5.0 0.00 0.00 0.00 90 1013.8
20210305114020 56 170 2.0 5.0 0.00 0.00 0.00 90 1013.8
20210305113522 56 170 2.0 5.0 0.00 0.00 0.00 90 1013.8
20210305113050 56 170 4.0 5.0 0.00 0.00 0.00 90 1013.6
20210305112808 56 170 4.0 5.0 0.00 0.00 0.00 90 1013.5
20210305112145 56 170 2.0 5.0 0.00 0.00 0.00 90 1013.5
20210305111513 56 170 2.0 6.0 0.00 0.00 0.00 90 1013.4
20210305111023 56 170 2.0 6.0 0.00 0.00 0.00 90 1013.3
20210305110524 56 170 2.0 5.0 0.00 0.00 0.00 90 1013.2
20210305110044 56 170 2.0 5.0 0.00 0.00 0.00 90 1013.3
20210305105924 56 171 4.0 6.0 0.00 0.00 0.00 90 1013.3
20210305105350 56 171 2.0 6.0 0.00 0.00 0.00 90 1013.3
20210305104521 56 171 2.0 5.0 0.00 0.00 0.00 89 1013.3
20210305104021 56 171 2.0 5.0 0.00 0.00 0.00 89 1013.4
20210305103520 56 171 2.0 5.0 0.00 0.00 0.00 89 1013.3
20210305103022 56 171 2.0 4.0 0.00 0.00 0.00 89 1013.3
20210305102744 56 171 2.0 7.0 0.00 0.00 0.00 89 1013.3
20210305102136 56 171 4.0 7.0 0.00 0.00 0.00 89 1013.0
20210305101538 56 171 4.0 7.0 0.00 0.00 0.00 89 1013.0
20210305101035 56 171 4.0 7.0 0.00 0.00 0.00 89 1013.2
20210305100505 56 171 2.0 6.0 0.00 0.00 0.00 88 1013.4
20210305100113 56 171 2.0 6.0 0.00 0.00 0.00 88 1013.2
20210305095835 56 170 2.0 6.0 0.00 0.00 0.00 88 1013.2
20210305095139 56 170 2.0 5.0 0.00 0.00 0.00 88 1013.3
20210305094511 56 170 4.0 6.0 0.00 0.00 0.00 88 1013.4
20210305094020 56 170 4.0 6.0 0.00 0.00 0.00 88 1013.3
20210305093510 56 170 2.0 6.0 0.00 0.00 0.00 88 1013.3
20210305093012 56 169 2.0 10.0 0.00 0.00 0.00 88 1013.5
20210305092807 56 162 2.0 10.0 0.00 0.00 0.00 88 1013.5
20210305092256 56 157 4.0 8.0 0.00 0.00 0.00 88 1013.5
20210305091519 56 157 5.0 8.0 0.00 0.00 0.00 88 1013.4
20210305091026 56 156 5.0 10.0 0.00 0.00 0.00 87 1013.2
20210305090510 56 157 5.0 11.0 0.00 0.00 0.00 87 1013.4
20210305090024 56 158 5.0 11.0 0.00 0.00 0.00 87 1013.5
20210305085743 56 159 5.0 11.0 0.00 0.00 0.00 87 1013.5
20210305085205 56 162 5.0 11.0 0.00 0.00 0.00 87 1013.7
20210305084521 56 162 5.0 11.0 0.00 0.00 0.00 86 1013.7
20210305084019 56 163 6.0 10.0 0.00 0.00 0.00 86 1013.7
20210305083513 56 166 6.0 10.0 0.00 0.00 0.00 86 1013.8
20210305083122 56 166 6.0 11.0 0.00 0.00 0.00 86 1013.8
20210305082902 56 167 5.0 11.0 0.00 0.00 0.00 86 1013.9
20210305082330 56 168 5.0 8.0 0.00 0.00 0.00 85 1014.0
20210305081511 56 168 4.0 7.0 0.00 0.00 0.00 85 1014.1
20210305081021 56 169 4.0 7.0 0.00 0.00 0.00 85 1014.3
20210305080520 56 169 5.0 10.0 0.00 0.00 0.00 85 1014.3
20210305080043 56 169 5.0 10.0 0.00 0.00 0.00 85 1014.2
20210305075926 56 168 4.0 8.0 0.00 0.00 0.00 85 1014.2
20210305075326 56 166 4.0 10.0 0.00 0.00 0.00 85 1014.3
20210305074512 56 162 4.0 10.0 0.00 0.00 0.00 85 1014.3
20210305074010 56 158 4.0 6.0 0.00 0.00 0.00 85 1014.4
20210305073514 56 158 2.0 5.0 0.00 0.00 0.00 85 1014.5
20210305073016 56 158 2.0 7.0 0.00 0.00 0.00 85 1014.6
20210305072817 56 158 2.0 7.0 0.00 0.00 0.00 85 1014.7
20210305072152 56 158 4.0 7.0 0.00 0.00 0.00 85 1014.7
20210305071510 56 158 4.0 7.0 0.00 0.00 0.00 85 1014.9
20210305071021 56 157 2.0 6.0 0.00 0.00 0.00 85 1014.9
20210305070520 56 157 2.0 5.0 0.00 0.00 0.00 85 1015.0
20210305070103 56 160 4.0 8.0 0.00 0.00 0.00 85 1015.2
20210305065816 56 163 4.0 8.0 0.00 0.00 0.00 85 1015.2
20210305065113 56 166 4.0 6.0 0.00 0.00 0.00 85 1015.2
20210305064531 56 166 2.0 5.0 0.00 0.00 0.00 85 1015.2
20210305064010 56 166 1.0 2.0 0.00 0.00 0.00 85 1015.5
20210305063513 56 166 1.0 6.0 0.00 0.00 0.00 85 1015.6
20210305063119 55 166 2.0 6.0 0.00 0.00 0.00 85 1015.6
20210305062929 55 166 2.0 5.0 0.00 0.00 0.00 85 1015.5
20210305062421 55 166 1.0 4.0 0.00 0.00 0.00 85 1015.4
20210305061521 55 164 2.0 10.0 0.00 0.00 0.00 85 1015.4
20210305061023 55 160 4.0 10.0 0.00 0.00 0.00 85 1015.4
20210305060523 55 154 2.0 5.0 0.00 0.00 0.00 85 1015.3
20210305060031 55 152 2.0 11.0 0.00 0.00 0.00 85 1015.4
20210305055821 55 151 4.0 11.0 0.00 0.00 0.00 85 1015.3
20210305055110 55 150 2.0 6.0 0.00 0.00 0.00 85 1015.2
20210305054510 55 145 4.0 10.0 0.00 0.00 0.00 84 1015.0
20210305054009 55 139 4.0 10.0 0.00 0.00 0.00 84 1014.8
20210305053522 55 134 2.0 7.0 0.00 0.00 0.00 84 1014.8
20210305053021 56 134 4.0 6.0 0.00 0.00 0.00 84 1014.9
20210305052804 56 131 4.0 11.0 0.00 0.00 0.00 84 1014.7
20210305052131 56 134 5.0 11.0 0.00 0.00 0.00 83 1014.6
20210305051518 56 142 5.0 10.0 0.00 0.00 0.00 83 1014.5
20210305051020 56 148 6.0 16.0 0.00 0.00 0.00 83 1014.6
20210305050512 56 147 6.0 16.0 0.00 0.00 0.00 83 1014.7
20210305050019 56 145 6.0 12.0 0.00 0.00 0.00 82 1014.8
20210305045812 57 143 6.0 12.0 0.00 0.00 0.00 82 1014.8
20210305045210 57 139 6.0 13.0 0.00 0.00 0.00 82 1014.8
20210305044521 57 141 6.0 13.0 0.00 0.00 0.00 81 1014.7
20210305044020 57 141 6.0 12.0 0.00 0.00 0.00 81 1014.9
20210305043524 57 139 7.0 12.0 0.00 0.00 0.00 80 1015.0
20210305043107 58 134 7.0 17.0 0.00 0.00 0.00 80 1014.9
20210305042853 58 132 7.0 17.0 0.00 0.00 0.00 80 1014.9
20210305042135 58 134 6.0 17.0 0.00 0.00 0.00 79 1014.6
20210305041512 58 137 8.0 17.0 0.00 0.00 0.00 79 1014.6
20210305041024 58 136 10.0 20.0 0.00 0.00 0.00 79 1014.6
20210305040523 58 138 10.0 20.0 0.00 0.00 0.00 78 1014.7
20210305040251 58 144 8.0 16.0 0.00 0.00 0.00 78 1014.6
20210305040118 59 139 10.0 18.0 0.00 0.00 0.00 77 1014.7
20210305035751 59 135 10.0 25.0 0.00 0.00 0.00 77 1014.8
20210305034521 59 138 7.0 25.0 0.00 0.00 0.00 76 1014.8
20210305034023 59 147 8.0 22.0 0.00 0.00 0.00 75 1014.8
20210305033520 60 148 10.0 22.0 0.00 0.00 0.00 75 1014.8
20210305033030 60 143 8.0 18.0 0.00 0.00 0.00 74 1014.6
20210305032604 60 143 8.0 18.0 0.00 0.00 0.00 73 1014.6
20210305032110 60 143 8.0 16.0 0.00 0.00 0.00 73 1014.9
20210305031520 60 144 8.0 16.0 0.00 0.00 0.00 72 1015.0
20210305031023 60 139 6.0 14.0 0.00 0.00 0.00 71 1014.9
20210305030523 61 132 5.0 11.0 0.00 0.00 0.00 70 1014.7
20210305030048 61 144 6.0 14.0 0.00 0.00 0.00 69 1014.9
20210305025919 61 151 6.0 14.0 0.00 0.00 0.00 69 1014.8
20210305025252 62 144 6.0 13.0 0.00 0.00 0.00 68 1014.8
20210305024523 62 140 6.0 13.0 0.00 0.00 0.00 67 1014.6
20210305024019 62 141 6.0 16.0 0.00 0.00 0.00 67 1014.8
20210305023520 62 139 7.0 16.0 0.00 0.00 0.00 66 1014.7
20210305023021 62 142 8.0 16.0 0.00 0.00 0.00 66 1014.7
20210305022848 63 143 8.0 16.0 0.00 0.00 0.00 65 1014.6
20210305022110 63 129 7.0 14.0 0.00 0.00 0.00 64 1014.7
20210305021522 63 125 7.0 14.0 0.00 0.00 0.00 63 1014.6
20210305021024 64 130 7.0 16.0 0.00 0.00 0.00 62 1014.6
20210305020511 64 132 8.0 19.0 0.00 0.00 0.00 61 1014.6
20210305020116 64 134 8.0 19.0 0.00 0.00 0.00 61 1014.6
20210305015856 64 138 7.0 14.0 0.00 0.00 0.00 61 1014.5
20210305015204 64 143 6.0 14.0 0.00 0.00 0.00 60 1014.5
20210305014519 65 139 7.0 14.0 0.00 0.00 0.00 60 1014.4
20210305014011 65 130 7.0 14.0 0.00 0.00 0.00 60 1014.4
20210305013519 65 127 6.0 13.0 0.00 0.00 0.00 60 1014.4
20210305013030 65 125 7.0 13.0 0.00 0.00 0.00 61 1014.3
20210305012851 65 119 6.0 13.0 0.00 0.00 0.00 61 1014.2
20210305012237 66 116 6.0 13.0 0.00 0.00 0.00 61 1014.2
20210305011526 66 119 5.0 11.0 0.00 0.00 0.00 60 1014.2
20210305011021 66 126 5.0 14.0 0.00 0.00 0.00 60 1014.3
20210305010518 66 128 5.0 14.0 0.00 0.00 0.00 60 1013.9
20210305010025 67 127 5.0 14.0 0.00 0.00 0.00 59 1013.9
20210305005818 67 131 6.0 14.0 0.00 0.00 0.00 58 1013.9
20210305005324 67 133 5.0 11.0 0.00 0.00 0.00 58 1013.8
20210305004519 68 129 6.0 13.0 0.00 0.00 0.00 57 1013.9
20210305004022 68 131 6.0 13.0 0.00 0.00 0.00 57 1013.9
20210305003518 68 136 6.0 12.0 0.00 0.00 0.00 56 1013.9
20210305003053 69 136 6.0 12.0 0.00 0.00 0.00 55 1013.8
20210305002740 69 138 7.0 13.0 0.00 0.00 0.00 55 1013.9
20210305002208 69 139 7.0 17.0 0.00 0.00 0.00 54 1014.0
20210305001516 70 133 7.0 17.0 0.00 0.00 0.00 54 1014.0
20210305001022 70 130 7.0 14.0 0.00 0.00 0.00 53 1014.1
20210305000652 70 124 7.0 14.0 0.00 0.00 0.00 53 1014.1
20210304235956 71 125 8.0 18.0 0.00 0.00 0.00 53 1014.3
20210304235347 71 133 6.0 17.0 0.00 0.00 0.00 52 1014.3
20210304234536 71 143 6.0 19.0 0.00 0.00 0.00 51 1014.3
20210304234021 71 136 8.0 19.0 0.00 0.00 0.00 50 1014.3
20210304233519 72 138 8.0 19.0 0.00 0.00 0.00 50 1014.4
20210304233202 72 142 7.0 16.0 0.00 0.00 0.00 50 1014.3
20210304233019 72 139 8.0 18.0 0.00 0.00 0.00 49 1014.3
20210304232331 72 129 10.0 19.0 0.00 0.00 0.00 49 1014.3
20210304231519 73 121 8.0 19.0 0.00 0.00 0.00 49 1014.4
20210304231021 73 130 10.0 18.0 0.00 0.00 0.00 48 1014.4
20210304230520 73 147 10.0 20.0 0.00 0.00 0.00 48 1014.3
20210304230129 73 150 8.0 20.0 0.00 0.00 0.00 48 1014.4
20210304225928 74 133 8.0 19.0 0.00 0.00 0.00 47 1014.5
20210304225156 74 134 8.0 22.0 0.00 0.00 0.00 48 1014.5
20210304224528 74 136 10.0 22.0 0.00 0.00 0.00 48 1014.5
20210304224011 74 128 11.0 25.0 0.00 0.00 0.00 48 1014.5
20210304223524 74 125 10.0 25.0 0.00 0.00 0.00 48 1014.5
20210304223031 74 130 8.0 19.0 0.00 0.00 0.00 47 1014.4
20210304222835 75 131 10.0 22.0 0.00 0.00 0.00 46 1014.6
20210304222117 75 131 10.0 22.0 0.00 0.00 0.00 47 1014.7
20210304221521 75 141 11.0 20.0 0.00 0.00 0.00 47 1014.7
20210304221004 75 144 10.0 26.0 0.00 0.00 0.00 46 1014.8
20210304220511 75 132 11.0 26.0 0.00 0.00 0.00 48 1014.8
20210304220207 75 133 11.0 24.0 0.00 0.00 0.00 46 1014.8
20210304220051 75 147 12.0 24.0 0.00 0.00 0.00 47 1014.9
20210304215440 75 142 11.0 20.0 0.00 0.00 0.00 46 1014.9
20210304214510 75 124 10.0 23.0 0.00 0.00 0.00 48 1015.0
20210304214031 75 124 10.0 23.0 0.00 0.00 0.00 49 1015.0
20210304213526 75 123 11.0 20.0 0.00 0.00 0.00 48 1015.0
20210304213023 75 131 12.0 22.0 0.00 0.00 0.00 48 1015.0
20210304212821 75 135 11.0 23.0 0.00 0.00 0.00 48 1015.2
20210304212155 75 122 10.0 23.0 0.00 0.00 0.00 48 1015.3
20210304211521 75 131 10.0 20.0 0.00 0.00 0.00 48 1015.3
20210304211011 75 137 11.0 24.0 0.00 0.00 0.00 49 1015.3
20210304210515 75 134 10.0 24.0 0.00 0.00 0.00 48 1015.3
20210304210011 75 124 10.0 26.0 0.00 0.00 0.00 49 1015.3
20210304205856 75 121 11.0 26.0 0.00 0.00 0.00 49 1015.5
20210304205335 75 133 10.0 19.0 0.00 0.00 0.00 49 1015.5
20210304204539 75 133 10.0 17.0 0.00 0.00 0.00 49 1015.7
20210304204007 75 123 10.0 18.0 0.00 0.00 0.00 49 1015.7
20210304203645 75 121 8.0 19.0 0.00 0.00 0.00 49 1015.7
20210304203354 75 115 8.0 19.0 0.00 0.00 0.00 50 1015.7
20210304203123 74 116 8.0 19.0 0.00 0.00 0.00 51 1015.9
20210304202604 75 133 10.0 19.0 0.00 0.00 0.00 49 1016.0
20210304201511 75 135 10.0 19.0 0.00 0.00 0.00 50 1016.2
20210304201019 74 128 11.0 18.0 0.00 0.00 0.00 50 1016.1
20210304200519 75 131 10.0 18.0 0.00 0.00 0.00 51 1016.2
20210304200240 75 131 10.0 16.0 0.00 0.00 0.00 50 1016.2
20210304200027 74 133 10.0 17.0 0.00 0.00 0.00 50 1016.5
20210304195310 74 137 10.0 19.0 0.00 0.00 0.00 50 1016.5
20210304194525 74 137 10.0 20.0 0.00 0.00 0.00 50 1016.6
20210304194026 74 147 10.0 20.0 0.00 0.00 0.00 50 1016.7
20210304193522 74 142 10.0 20.0 0.00 0.00 0.00 49 1016.7
20210304193145 74 126 10.0 20.0 0.00 0.00 0.00 51 1016.8
20210304192948 74 135 10.0 14.0 0.00 0.00 0.00 50 1017.1
20210304192314 74 137 10.0 17.0 0.00 0.00 0.00 53 1017.2